GW6385 Weather Reports


Display with metric or nautical units.
time (UTC)temp
F
wind
direction
speed
MPH
gust
MPH
rain 1hr
in
rain 24hr
in
rain mn
in
humidity
%
barometer
mb
20260507134047 53 203 5.0 12.0 0.00 0.00 0.00 72 783.3
20260507133546 53 210 4.0 12.0 0.00 0.00 0.00 74 788.0
20260507132530 51 205 3.0 12.0 0.00 0.00 0.00 78 791.3
20260507132030 51 215 4.0 12.0 0.00 0.00 0.00 78 801.8
20260507131015 50 215 4.0 12.0 0.00 0.00 0.00 78 798.0
20260507130515 49 212 3.0 12.0 0.00 0.00 0.00 77 795.7
20260507130014 49 216 3.0 12.0 0.00 0.00 0.00 77 801.0
20260507125514 48 214 4.0 12.0 0.00 0.00 0.00 77 792.5
20260507125012 48 211 4.0 12.0 0.00 0.00 0.00 77 791.0
20260507123955 47 215 2.0 12.0 0.00 0.00 0.00 79 789.8
20260507123454 46 209 3.0 12.0 0.00 0.00 0.00 79 773.3
20260507122954 46 202 3.0 12.0 0.00 0.00 0.00 79 770.9
20260507122452 45 208 3.0 12.0 0.00 0.00 0.00 79 782.0
20260507121436 44 222 3.0 12.0 0.00 0.00 0.00 80 754.5
20260507120420 43 237 2.0 12.0 0.00 0.00 0.00 80 578.8
20260507115919 43 260 2.0 12.0 0.00 0.00 0.00 80 312.9
20260507115418 43 9 2.0 12.0 0.00 0.00 0.00 80 181.9
20260507114918 43 9 2.0 12.0 0.00 0.00 0.00 80 182.0
20260507114417 43 9 2.0 12.0 0.00 0.00 0.00 81 181.8
20260507113359 42 9 2.0 12.0 0.00 0.00 0.00 84 181.4
20260507112343 42 9 0.0 12.0 0.00 0.00 0.00 86 180.8
20260507111326 43 9 0.0 12.0 0.00 0.00 0.00 84 181.1
20260507110825 43 9 1.0 12.0 0.00 0.00 0.00 82 181.2
20260507110325 43 9 1.0 12.0 0.00 0.00 0.00 82 181.3
20260507105823 43 9 1.0 12.0 0.00 0.00 0.00 82 181.3
20260507105322 43 9 1.0 12.0 0.00 0.00 0.00 82 181.4
20260507104821 43 9 2.0 12.0 0.00 0.00 0.00 83 181.4
20260507104321 43 9 1.0 12.0 0.00 0.00 0.00 83 181.3
20260507103304 43 9 2.0 12.0 0.00 0.00 0.00 85 181.4
20260507102804 42 9 1.0 12.0 0.00 0.00 0.00 86 181.2
20260507102306 42 9 2.0 12.0 0.00 0.00 0.00 88 181.0
20260507101803 42 9 0.0 12.0 0.00 0.00 0.00 89 180.9
20260507101303 42 9 0.0 12.0 0.00 0.00 0.00 89 180.9
20260507100801 42 9 0.0 12.0 0.00 0.00 0.00 89 181.0
20260507100301 42 9 0.0 12.0 0.00 0.00 0.00 89 181.1
20260507095800 42 9 0.0 12.0 0.00 0.00 0.00 90 181.1
20260507095259 42 9 0.0 12.0 0.00 0.00 0.00 89 181.1
20260507094757 42 9 0.0 12.0 0.00 0.00 0.00 89 181.3
20260507093742 43 9 0.0 12.0 0.00 0.00 0.00 88 181.0
20260507093240 43 9 0.0 12.0 0.00 0.00 0.00 88 181.0
20260507092740 43 9 0.0 12.0 0.00 0.00 0.00 87 181.2
20260507091725 43 9 0.0 12.0 0.00 0.00 0.00 87 181.2
20260507091224 43 9 0.0 12.0 0.00 0.00 0.00 87 180.9
20260507090724 43 9 0.0 12.0 0.00 0.00 0.00 87 180.9
20260507085707 43 9 0.0 12.0 0.00 0.00 0.00 88 181.6
20260507084651 43 9 0.0 12.0 0.00 0.00 0.00 90 181.3
20260507084150 43 9 0.0 12.0 0.00 0.00 0.00 90 181.3
20260507083649 43 9 0.0 12.0 0.00 0.00 0.00 90 181.2
20260507083148 43 9 0.0 12.0 0.00 0.00 0.00 91 181.1
20260507082132 43 9 0.0 12.0 0.00 0.00 0.00 91 181.1
20260507081117 43 9 0.0 12.0 0.00 0.00 0.00 90 181.2
20260507080101 44 9 0.0 12.0 0.00 0.00 0.00 90 181.6
20260507075601 44 9 0.0 12.0 0.00 0.00 0.00 90 181.7
20260507075100 44 9 0.0 12.0 0.00 0.00 0.00 89 181.7
20260507074559 44 9 0.0 12.0 0.00 0.00 0.00 89 181.7
20260507074059 44 9 0.0 12.0 0.00 0.00 0.00 90 181.5
20260507073042 45 9 0.0 12.0 0.00 0.00 0.00 89 181.3
20260507072541 45 9 0.0 12.0 0.00 0.00 0.00 89 181.0
20260507072041 45 9 0.0 12.0 0.00 0.00 0.00 88 181.1
20260507071540 45 9 0.0 12.0 0.00 0.00 0.00 88 181.1
20260507071040 45 9 0.0 12.0 0.00 0.00 0.00 88 181.5
20260507070540 45 9 0.0 12.0 0.00 0.00 0.00 88 181.9
20260507070040 46 9 0.0 12.0 0.00 0.00 0.00 88 181.7
20260507065540 46 9 0.0 12.0 0.00 0.00 0.00 87 181.5
20260507065040 46 9 0.0 12.0 0.00 0.00 0.00 87 181.5
20260507064539 46 9 0.0 12.0 0.00 0.00 0.00 86 181.7
20260507064038 46 9 1.0 12.0 0.00 0.00 0.00 86 181.8
20260507063537 46 9 1.0 12.0 0.00 0.00 0.00 86 182.5
20260507063037 46 9 0.0 12.0 0.00 0.00 0.00 86 182.6
20260507062020 46 9 1.0 12.0 0.00 0.00 0.00 87 182.2
20260507061520 45 9 1.0 12.0 0.00 0.00 0.00 88 182.4
20260507061020 45 9 0.0 12.0 0.00 0.00 0.00 88 182.7
20260507060520 45 9 0.0 12.0 0.00 0.00 0.00 89 182.8
20260507060020 45 9 0.0 12.0 0.00 0.00 0.00 89 182.3
20260507055520 45 9 0.0 12.0 0.00 0.00 0.00 90 182.0
20260507055020 45 9 0.0 12.0 0.00 0.00 0.00 90 181.7
20260507054519 45 9 0.0 12.0 0.00 0.00 0.00 90 181.8
20260507054018 45 9 0.0 12.0 0.00 0.00 0.00 90 181.8
20260507053518 45 9 0.0 12.0 0.00 0.00 0.00 90 181.4
20260507053017 45 9 0.0 12.0 0.00 0.00 0.00 90 181.6
20260507052516 45 9 0.0 12.0 0.00 0.00 0.00 90 182.1
20260507051500 46 9 0.0 12.0 0.00 0.00 0.00 90 182.1
20260507050959 46 9 0.0 12.0 0.00 0.00 0.00 90 181.8
20260507050458 46 9 0.0 12.0 0.00 0.00 0.00 89 181.7
20260507045958 46 9 0.0 12.0 0.00 0.00 0.01 89 181.9
20260507045458 46 9 0.0 12.0 0.00 0.00 0.01 90 181.7
20260507044957 46 9 0.0 12.0 0.01 0.00 0.01 89 181.5
20260507044457 46 9 0.0 12.0 0.01 0.00 0.01 89 181.4
20260507043957 47 9 0.0 12.0 0.01 0.00 0.01 89 181.4
20260507043457 47 9 0.0 12.0 0.01 0.00 0.01 88 181.4
20260507042956 47 9 0.0 12.0 0.01 0.00 0.01 87 181.5
20260507042455 47 9 0.0 12.0 0.01 0.00 0.01 87 181.5
20260507041954 47 9 0.0 12.0 0.01 0.00 0.01 87 181.7
20260507041454 47 9 0.0 12.0 0.01 0.00 0.01 88 181.9
20260507040954 47 9 0.0 12.0 0.01 0.00 0.01 88 181.9
20260507040453 47 9 0.0 12.0 0.01 0.00 0.01 88 181.9
20260507035952 47 9 0.0 12.0 0.01 0.00 0.01 88 181.6
20260507035451 47 9 0.0 12.0 0.01 0.00 0.01 88 181.3
20260507033919 48 9 0.0 12.0 0.00 0.00 0.00 86 182.0
20260507033418 48 9 0.0 12.0 0.00 0.00 0.00 85 181.7
20260507032917 48 9 0.0 12.0 0.00 0.00 0.00 85 181.5
20260507032416 49 9 0.0 12.0 0.00 0.00 0.00 84 181.4
20260507031915 49 9 0.0 12.0 0.00 0.00 0.00 82 181.3
20260507031415 49 9 0.0 12.0 0.00 0.00 0.00 81 181.1
20260507030358 49 9 0.0 12.0 0.00 0.00 0.00 78 181.7
20260507025857 49 9 0.0 12.0 0.00 0.00 0.00 78 181.5
20260507025356 50 9 0.0 12.0 0.00 0.00 0.00 77 181.3
20260507024855 49 9 0.0 12.0 0.00 0.00 0.00 73 181.4
20260507023323 50 9 0.0 12.0 0.00 0.00 0.00 76 181.9
20260507022822 50 9 0.0 12.0 0.00 0.00 0.00 78 181.6
20260507022321 51 9 0.0 12.0 0.00 0.00 0.00 77 181.5
20260507021820 51 9 0.0 12.0 0.00 0.00 0.00 75 181.7
20260507020803 51 9 0.0 12.0 0.00 0.00 0.00 72 181.9
20260507020302 52 9 0.0 12.0 0.00 0.00 0.00 71 182.0
20260507015802 52 9 0.0 12.0 0.00 0.00 0.00 72 182.0
20260507015301 53 9 0.0 12.0 0.00 0.00 0.00 71 181.9
20260507014800 53 9 0.0 12.0 0.00 0.00 0.00 72 182.0
20260507014259 54 9 0.0 12.0 0.00 0.00 0.00 71 181.8
20260507013758 55 9 0.0 12.0 0.00 0.00 0.00 70 181.5
20260507013257 55 9 0.0 12.0 0.00 0.00 0.00 65 181.6
20260507012756 56 9 0.0 12.0 0.00 0.00 0.00 58 182.0
20260507012255 56 9 0.0 12.0 0.00 0.00 0.00 56 182.0
20260507011754 56 9 0.0 12.0 0.00 0.00 0.00 56 182.4
20260507011254 57 9 0.0 12.0 0.00 0.00 0.00 54 183.8
20260507010753 57 9 0.0 12.0 0.00 0.00 0.00 53 185.7
20260507005736 57 9 0.0 12.0 0.00 0.00 0.00 54 197.9
20260507004719 58 9 1.0 12.0 0.00 0.00 0.00 49 229.0
20260507004218 57 9 1.0 12.0 0.00 0.00 0.00 49 263.5
20260507003717 57 9 2.0 12.0 0.00 0.00 0.00 49 328.7
20260507003216 57 4 4.0 12.0 0.00 0.00 0.00 47 468.4
20260507002716 58 0 3.0 12.0 0.00 0.00 0.00 47 649.4
20260507002216 58 5 3.0 12.0 0.00 0.00 0.00 46 501.4
20260507001159 59 2 5.0 12.0 0.00 0.00 0.00 43 451.9
20260507000659 59 3 5.0 12.0 0.00 0.00 0.00 44 503.5
20260507000158 59 2 5.0 12.0 0.00 0.00 0.00 44 557.8
20260506235142 59 4 7.0 12.0 0.00 0.00 0.00 44 413.1
20260506234641 59 8 6.0 12.0 0.00 0.00 0.00 44 433.3
20260506233624 59 5 6.0 12.0 0.00 0.00 0.00 46 616.6
20260506233124 59 2 5.0 12.0 0.00 0.00 0.00 44 476.8
20260506232623 59 11 8.0 12.0 0.00 0.00 0.00 44 422.1
20260506232122 59 8 6.0 12.0 0.00 0.00 0.00 44 526.5
20260506231621 59 0 2.0 12.0 0.00 0.00 0.00 43 661.5
20260506231121 59 358 7.0 12.0 0.00 0.00 0.00 41 595.3
20260506230620 59 2 7.0 12.0 0.00 0.00 0.00 44 488.1
20260506225603 59 344 4.0 12.0 0.00 0.00 0.00 42 766.0
20260506225102 59 5 8.0 12.0 0.00 0.00 0.00 43 402.1
20260506224601 59 14 8.0 12.0 0.00 0.00 0.00 44 373.6
20260506224100 59 24 8.0 12.0 0.00 0.00 0.00 43 392.5
20260506223559 59 18 4.0 12.0 0.00 0.00 0.00 45 436.7
20260506223058 59 14 4.0 12.0 0.00 0.00 0.00 45 507.4
20260506222557 59 5 6.0 12.0 0.00 0.00 0.00 43 676.2
20260506222056 59 0 7.0 12.0 0.00 0.00 0.00 44 554.4
20260506221555 59 13 4.0 12.0 0.00 0.00 0.00 46 457.4
20260506221054 59 23 5.0 13.0 0.00 0.00 0.00 47 443.3
20260506220553 59 2 7.0 13.0 0.00 0.00 0.00 46 545.1
20260506220052 59 32 6.0 14.0 0.00 0.00 0.00 48 590.1
20260506215551 59 358 7.0 14.0 0.00 0.00 0.00 46 765.3
20260506215050 59 353 5.0 14.0 0.00 0.00 0.00 47 773.8
20260506214550 59 348 6.0 14.0 0.00 0.00 0.00 44 773.0
20260506214050 59 2 7.0 14.0 0.00 0.00 0.00 42 770.6
20260506213549 59 354 6.0 14.0 0.00 0.00 0.00 48 724.4
20260506211501 59 27 3.0 13.0 0.00 0.00 0.00 47 632.0
20260506211001 59 346 7.0 16.0 0.00 0.00 0.00 45 737.4
20260506210501 59 3 11.0 16.0 0.00 0.00 0.00 48 521.3
20260506210000 58 0 7.0 14.0 0.00 0.00 0.00 44 552.6
20260506205500 59 13 4.0 13.0 0.00 0.00 0.00 44 460.8
20260506204444 58 18 8.0 15.0 0.00 0.00 0.00 46 377.9
20260506203427 58 0 4.0 15.0 0.00 0.00 0.00 46 563.1
20260506202926 58 13 8.0 15.0 0.00 0.00 0.00 46 408.4
20260506202425 59 8 7.0 14.0 0.00 0.00 0.00 46 401.9
20260506201924 59 37 6.0 14.0 0.00 0.00 0.00 48 442.2
20260506201423 58 358 4.0 12.0 0.00 0.00 0.00 47 499.1
20260506200922 58 32 5.0 12.0 0.00 0.00 0.00 47 311.9
20260506200422 58 33 5.0 11.0 0.00 0.00 0.00 51 319.0
20260506194849 58 7 7.0 11.0 0.00 0.00 0.00 48 432.9
20260506194348 57 5 2.0 11.0 0.00 0.00 0.00 47 410.0
20260506193332 57 25 4.0 11.0 0.00 0.00 0.00 50 695.0
20260506192831 57 356 7.0 11.0 0.00 0.00 0.00 45 873.9
20260506192330 57 356 5.0 11.0 0.00 0.00 0.00 47 897.4
20260506191830 57 351 7.0 11.0 0.00 0.00 0.00 44 872.4
20260506191329 57 338 5.0 11.0 0.00 0.00 0.00 49 689.3
20260506190828 57 8 1.0 11.0 0.00 0.00 0.00 48 588.3
20260506190327 57 359 9.0 14.0 0.00 0.00 0.00 45 877.8
20260506185826 57 323 6.0 12.0 0.00 0.00 0.00 48 861.4
20260506185325 57 0 8.0 12.0 0.00 0.00 0.00 45 639.8
20260506184824 57 3 6.0 12.0 0.00 0.00 0.00 47 550.2
20260506184323 57 12 6.0 12.0 0.00 0.00 0.00 51 557.2
20260506183822 56 9 7.0 12.0 0.00 0.00 0.00 46 620.4
20260506182805 56 14 5.0 12.0 0.00 0.00 0.00 47 398.9
20260506182306 56 33 6.0 12.0 0.00 0.00 0.00 50 467.6
20260506181805 56 357 5.0 12.0 0.00 0.00 0.00 50 640.0
20260506181305 56 357 8.0 15.0 0.00 0.00 0.00 46 655.8
20260506180804 56 8 7.0 15.0 0.00 0.00 0.00 46 587.7
20260506180304 56 355 8.0 13.0 0.00 0.00 0.00 47 549.9
20260506175804 56 29 3.0 13.0 0.00 0.00 0.00 49 421.9
20260506175306 56 29 3.0 13.0 0.00 0.00 0.00 47 518.4
20260506174802 56 4 6.0 14.0 0.00 0.00 0.00 49 753.2
20260506174301 56 359 10.0 14.0 0.00 0.00 0.00 48 901.1
20260506173801 56 348 5.0 12.0 0.00 0.00 0.00 54 869.8
20260506172744 56 0 10.0 13.0 0.00 0.00 0.00 50 907.4
20260506171211 55 340 5.0 13.0 0.00 0.00 0.00 51 954.7
20260506170711 55 345 6.0 13.0 0.00 0.00 0.00 50 842.2
20260506170210 55 358 5.0 13.0 0.00 0.00 0.00 50 697.4
20260506165710 55 358 7.0 13.0 0.00 0.00 0.00 49 556.2
20260506165209 55 17 7.0 13.0 0.00 0.00 0.00 50 558.1
20260506164708 55 18 5.0 13.0 0.00 0.00 0.00 52 641.6
20260506164208 55 345 4.0 13.0 0.00 0.00 0.00 56 965.3
20260506163151 55 349 5.0 13.0 0.00 0.00 0.00 57 789.4
20260506162650 55 347 5.0 15.0 0.00 0.00 0.00 58 662.6
20260506162149 55 11 8.0 15.0 0.00 0.00 0.00 57 528.8
20260506161648 55 356 8.0 15.0 0.00 0.00 0.00 56 602.8
20260506161147 54 22 6.0 15.0 0.00 0.00 0.00 56 464.8
20260506160646 54 11 9.0 15.0 0.00 0.00 0.00 56 604.9
20260506160146 54 355 6.0 200.0 0.00 0.00 0.00 63 780.7
20260506155645 54 358 5.0 200.0 0.00 0.00 0.00 64 812.7
20260506155144 54 353 6.0 200.0 0.00 0.00 0.00 60 864.6
20260506154643 54 349 5.0 200.0 0.00 0.00 0.00 67 929.4
20260506154142 53 350 4.0 200.0 0.00 0.00 0.00 64 846.0
20260506153641 53 343 6.0 200.0 0.00 0.00 0.00 65 752.1
20260506153140 53 339 5.0 200.0 0.00 0.00 0.00 68 469.1